Retour au catalogue

COSMOS 1275 DEB

ActifPO
NORAD 42204·DEBRIS·🇷🇺 Russia

Lancé Jun 4, 1981 depuis Plesetsk Cosmodrome

Loading…

Prochains Passages (prochaines 24 heures)

TLE

VieillissantSource: Space-Track

Époque: Sep 10, 2026, 23:37 UTC

1 42204U 81053TU  26253.98455972  .00000538  00000-0  56456-3 0  9991
2 42204  83.0682 347.4900 0126904 237.9000 120.9785 13.69996705638342

Suivez COSMOS 1275 DEB en temps réel avec AllMySat

Download on the App Store